Skip Page Navigation
NASA JPL Caltech
NASA Logo - Jet Propulsion Laboratory + View the NASA Portal
+ Center for Near-Earth Object Studies
JPL Home Earth Solar System Stars & Galaxies Technology
JPL Solar System Dynamics
BODIES ORBITS EPHEMERIDES TOOLS PHYSICAL DATA DISCOVERY FAQ SITE MAP
IMPORTANT: The SSD Announcement email list is now available. Major changes are coming in the near future, including possible hostname and/or URL changes. To be notified of such changes, subscribe to this email list.

Please visit this page for more details.


JPL Small-Body Database Browser
Search: [ help ]  
376151 (2011 BE59)
Classification: Main-belt Asteroid          SPK-ID: 2376151
Ephemeris | Orbit Diagram | Orbital Elements | Mission Design | Physical Parameters | Discovery Circumstances | Close-Approach Data ]

[ show orbit diagram ]
Orbital Elements at Epoch 2459000.5 (2020-May-31.0) TDB
Reference: JPL 14 (heliocentric ecliptic J2000)
 Element Value Uncertainty (1-sigma)   Units 
e .04549731527418917 6.8385e-08  
a 2.729071823962758 3.6108e-08 au
q 2.604906382782018 1.8485e-07 au
i 5.199135829276869 7.6807e-06 deg
node 293.8216732666584 6.7269e-05 deg
peri 41.83841124439478 0.00010288 deg
M 189.6665619355732 8.191e-05 deg
tp 2459779.644998138259
(2022-Jul-19.14499814)
0.00037951 TDB
period 1646.72422817932
4.51
3.2682e-05
8.948e-08
d
yr
n .218615839762089 4.3387e-09 deg/d
Q 2.853237265143498 3.7751e-08 au
  Orbit Determination Parameters
   # obs. used (total)      149  
   data-arc span      5174 days (14.17 yr)  
   first obs. used      2005-11-30  
   last obs. used      2020-01-30  
   planetary ephem.      DE431  
   SB-pert. ephem.      SB431-N16  
   condition code      0  
   norm. resid. RMS      .47582  
   source      ORB  
   producer      Otto Matic  
   solution date      2020-Feb-26 02:43:16  

Additional Information
 Earth MOID = 1.59683 au 
 Jupiter MOID = 2.33846 au 
 T_jup = 3.348 
[ show covariance matrix ]

Ephemeris | Orbit Diagram | Orbital Elements | Mission Design | Physical Parameters | Discovery Circumstances | Close-Approach Data ]

Physical Parameter Table
Parameter Symbol Value Units Sigma Reference Notes
absolute magnitude H 16.8   n/a MPO460474  

376151 (2011 BE59)          Discovered 2005-Nov-30 by Spacewatch at Kitt Peak
Reference: Last Updated: 2013-10-21

[ hide close-approach data ]
Close-Approach Data   ...sorted by Date/Time (TDB)
Date/Time (TDB) Time Uncertainty
(days_HH:MM)
Body Nominal Distance (au) Minimum Distance (au) Maximum Distance (au) V-relative (km/s) V-infinity (km/s) JD (TDB) Time Uncertainty (minutes) Semi-major axis (km) Semi-minor axis (km) range-LOV angle (deg) N-sigma BP Orbit Ref. Reference Modified
1963-May-30 08:28 00:08 Eunom 0.019862834656687 0.0198062441198772 0.0199195509992206 3.71523842635349 3.7152382361292 2438179.852895090 7.81971236491329 3764.69794077824 107.772614831686 -41.4656112392306 18243.6108346676 T 14 CATAB v2.0f-lin.ifort 2020-Feb-26 02:43:28 2020-Feb-26 02:43
1982-Sep-12 13:31 00:04 Thisb 0.0414264508159427 0.0413946688154438 0.0414582522110747 2.45082788924432 2.45082782208841 2445225.062899788 3.66418847358523 2124.37503754637 118.651831557497 -41.8787109706417 34882.7276930035 T 14 CATAB v2.0f-lin.ifort 2020-Feb-26 02:43:28 2020-Feb-26 02:43
2092-Dec-22 04:06 00:34 Iris 0.0355275352070297 0.0354280500904654 0.0356270467758406 3.55269703921405 3.5526969936681 2485503.671137422 33.5026950295309 5189.12003691953 122.961864222389 17.145743508943 12770.4476049842 T 14 CATAB v2.0f-lin.ifort 2020-Feb-26 02:43:28 2020-Feb-26 02:43
2115-Dec-23 09:47 00:30 Amphi 0.0401609152098819 0.0400638829231922 0.0402582350849556 2.25244064259022 2.25244057904014 2493903.907528265 29.7082506209302 7216.13942096725 91.9159887080539 -47.8865789366695 48412.9430562385 T 14 CATAB v2.0f-lin.ifort 2020-Feb-26 02:43:28 2020-Feb-26 02:43

Alternate Designations
 2011 BE59 = 2009 WQ160 
Ephemeris | Orbit Diagram | Orbital Elements | Mission Design | Physical Parameters | Discovery Circumstances | Close-Approach Data ]
ABOUT SSD CREDITS/AWARDS PRIVACY/COPYRIGHT GLOSSARY LINKS
FirstGov 2020-Apr-06 16:28 UT
(server date/time)  
NASA Home Page
Site Manager:   Ryan S. Park
Webmaster  Alan B. Chamberlin